Terminal Aerodrome Forecast
Issued by NWS Milwaukee/Sullivan, WI

Home | Current Version | Previous Version | Text Only | Print | Product List | Glossary On
Versions: 1 2 3 4 5 6 7 8 9 10 11 12 13 14 15 16 17 18 19 20 21 22 23 24 25 26 27 28 29 30 31 32 33 34 35 36 37 38 39 40 41 42 43 44 45 46 47 48 49 50
000
FTUS43 KMKX 010849 AAA
TAFMKE
TAF AMD
KMKE 010849Z 0109/0212 19004KT 6SM BR SKC
      TEMPO 0109/0112 3SM BR
     FM011400 20008KT P6SM FEW020 BKN250
     FM011900 18010KT P6SM SCT025 BKN250
     FM020100 18008KT P6SM SCT100 BKN250
     FM020400 21005KT P6SM SCT100=

USA.gov is the U.S. government's official web portal to all federal, state and local government web resources and services.